Location: Dos Palmas
(32.4468°N, 116.8732°W)
Time: 01:33:34
(UTC+00:00)

Cosmos 1844 Rocket - Pass Details

Date: 20 June 2021
Orbit: 823 x 846 km, 71.0° (Epoch: 27 July)

Event Time Altitude Azimuth Distance (km) Brightness Sun altitude
Rises 04:15:23 0° 353° (N) 3,408 6.6 -14.4°
Reaches altitude 10° 04:18:15 10° 5° (N) 2,471 5.6 -14.8°
Maximum altitude 04:22:57 26° 62° (ENE) 1,597 4.0 -15.6°
Enters shadow 04:25:30 19° 100° (E) 1,895 4.0 -16.0°
